Regional Weather Roundup
Issued by NWS Wakefield, VA

Home | Current Version | Previous Version | Graphics & Text | Print | Product List | Glossary On
Versions: 1 2 3 4 5 6 7 8 9 10 11 12 13 14 15 16 17 18 19 20 21 22 23 24 25 26 27 28 29 30 31 32 33 34 35 36 37 38 39 40 41 42 43 44 45 46 47 48 49 50
906
ASUS41 KAKQ 280115
RWRAKQ

REGIONAL WEATHER ROUNDUP
NATIONAL WEATHER SERVICE WAKEFIELD VA
900 PM EDT MON MAR 27 2017

Note: "fair" indicates few or no clouds below 12,000 feet with no
significant weather and/or obstructions to visibility. * = Denotes
station may not report precipitation (e.g., rain,snow,etc.),
thunder or fog.

VAZ042-051-052>054-056-280200-
NORTHERN VIRGINIA

CITY           SKY/WX    TMP DP  RH WIND       PRES   REMARKS
WASH NATIONAL  MOCLDY    66  57  72 NE3       29.93R
DULLES         CLOUDY    63  59  87 SE5       29.93R
FORT BELVOIR   MOCLDY    67  55  64 CALM      29.92R
QUANTICO       MOCLDY    66  56  70 SW8       29.93R
FREDERICKSBRG* PTCLDY    70  57  63 S6        29.92R
STAFFORD*      CLOUDY    68  56  64 S3        29.97R
WARRENTON      MOCLDY    70  52  52 CALM      29.91S
CULPEPER*      RAIN      69  59  71 SW8       29.93S
MANASSAS*      LGT RAIN N/A N/A N/A N3G16     29.92R
LEESBURG*      CLOUDY    64  61  88 CALM      29.93S
WINCHESTER     CLOUDY    57  55  94 CALM      29.92R
FRONT ROYAL*   PTCLDY    61  59  94 CALM      29.92R
LURAY*         CLOUDY    64  59  82 SW7       29.94R
$$

VAZ048-049-060>072-079>083-280200-
CENTRAL AND SOUTH CENTRAL VIRGINIA

CITY           SKY/WX    TMP DP  RH WIND       PRES   REMARKS
RICHMOND       PTCLDY    67  57  70 S8        29.95R
CHESTERFIELD*  FAIR     N/A N/A N/A S7        29.96S
PETERSBURG*    CLOUDY    66  56  71 CALM      29.96R
HANOVER        CLEAR     70  55  59 VRB6      29.95R
TAPPAHANNOCK*  CLEAR     70  49  48 S5        29.95R
QUINTON*       FAIR      70  58  66 S5        29.94S
CHARLOTTSVILLE CLOUDY    70  57  63 CALM      29.93R
GORDONSVILLE*  MOCLDY    66  57  73 CALM      29.93R
ORANGE*        CLOUDY    64  55  72 CALM      29.95R
LOUISA*        MOCLDY    73  59  60 S3        29.93R
BUMPASS*       FAIR      68  56  66 S5        29.94R
FARMVILLE*     CLOUDY    68  58  71 CALM      29.94R
CREWE*         FAIR      64  62  91 CALM      29.95S
FORT PICKETT*  FAIR      67  54  63 S7        29.96R
CHASE CITY*    FAIR      64  59  82 CALM      29.96S
CLARKSVILLE*   FAIR      64  59  82 CALM      29.95S
SOUTH HILL*    CLOUDY    67  59  76 S6        30.02R
LAWRENCEVILLE* FAIR      66  57  72 CALM      29.97R
EMPORIA*       CLEAR     64  55  72 SE3       29.98S
$$

VAZ088>098-280200-
SOUTHEAST VIRGINIA

CITY           SKY/WX    TMP DP  RH WIND       PRES   REMARKS
NORFOLK        CLOUDY    70  54  56 S9        29.98R
VIRGINIA BEACH CLOUDY    68  53  58 S10       29.98R
NORFOLK NAVAL  CLOUDY    70  53  54 S7        29.99S
WEST POINT*    CLEAR     67  55  63 SE3       29.96S
SALUDA*        FAIR      66  57  72 S6        29.96R
NEWPORT NEWS   CLEAR     67  55  65 MISG      29.97S
LANGLEY AFB    CLEAR     68  56  63 S5        29.97S
FORT EUSTIS    CLEAR     67  55  66 S3        29.95R
WILLIAMSBURG*  CLEAR     66  57  72 CALM      29.97S
HR EXEC AP*    FAIR      63  54  72 S8        29.97R
FRANKLIN*      CLEAR     63  55  76 CALM      29.98S
US460-WAKEFLD  CLEAR     67  57  70 S3        29.97S
$$

VAZ020-022-025-037-045-280200-
WEST CENTRAL AND SOUTHWEST VIRGINIA

CITY           SKY/WX    TMP DP  RH WIND       PRES   REMARKS
STAUNTON*      CLOUDY    60  55  84 CALM      29.96S
WAYNESBORO*    CLOUDY    60  60 100 CALM      29.96S
HOT SPRINGS VA CLOUDY    59  45  58 SE8       30.03S
LYNCHBURG      CLOUDY    67  57  70 S5        29.96R
DANVILLE       CLOUDY    64  58  80 CALM      29.95S
SOUTH BOSTON*  FAIR      67  56  68 SE3       29.95S
MARTINSVILLE   CLOUDY    62  59  92 CALM      29.99S
ROANOKE        CLOUDY    71  54  54 S5        29.95S
BLACKSBURG     CLOUDY    65  55  68 CALM      30.00S
DUBLIN*        CLOUDY    65  53  65 SW8       29.98F
MARION*        CLOUDY    64  52  64 CALM      30.01S
HILLSVILLE*    CLOUDY    59  53  82 S3        29.99S
RICHLANDS*     FAIR      64  47  52 S5        29.97S
WISE*          CLOUDY    64  46  52 S6        29.96F
ABINGDON*      PTCLDY    64  50  59 CALM      29.95S
$$

MDZ021>025-VAZ099-100-280200-
SOUTHERN MARYLAND AND THE DELMARVA PENINSULA

CITY           SKY/WX    TMP DP  RH WIND       PRES   REMARKS
PATUXENT RIVER MOCLDY    58  54  86 CALM      29.94R
BAY BRIDGE APT PTCLDY    52  50  93 CALM      29.94S FOG
LEONARDTOWN    PTCLDY    68  55  64 SE3       29.96R
DOVER          CLOUDY    55  55 100 CALM      29.95R
GEORGETOWN     PTCLDY    63  54  72 S7        29.97R
EASTON         CLEAR     66  55  68 S6        29.98R
CAMBRIDGE      CLEAR     63  55  77 S9        29.96R
SALISBURY      CLEAR     61  54  77 SE8       29.96S
OCEAN CITY     CLEAR     54  49  83 S8        29.99S
WALLOPS ISLAND CLEAR     55  51  86 S14       29.99S
ACCOMACK*      PTCLDY    60  48  64 S12       29.98R
$$

NCZ012>017-030>032-280200-
NORTH CENTRAL AND EASTERN NORTH CAROLINA

CITY           SKY/WX    TMP DP  RH WIND       PRES   REMARKS
ROANOKE RAPIDS FAIR      68  55  64 S5        29.97S
RALEIGH        MOCLDY    71  57  61 S8        29.98R
ELIZABETH CITY CLEAR     66  54  65 S8        30.01S
AHOSKIE*         N/A     64  56  74 S3        29.99S
EDENTON*       CLEAR     67  56  67 S10       30.02R
CURRITUCK*     CLEAR     67  55  64 S6        30.02R
KILL DEVIL HLS NOT AVBL
MANTEO         CLEAR     61  56  82 S7        30.04R
CAPE HATTERAS  CLEAR     69  57  65 SW9       30.05S
TARBORO*       NOT AVBL
GOLDSBORO      CLEAR     70  56  61 S7        29.99R
WASHINGTON     CLEAR     67  54  62 S7        30.02R
GREENVILLE     CLEAR     70  54  56 S9        30.02S
NEW BERN       CLEAR     65  56  72 S7        30.04S
WILMINGTON     CLEAR     65  56  72 S7        30.04S
$$

VAZ048-280200-
ELSEWHERE

CITY           SKY/WX    TMP DP  RH WIND       PRES   REMARKS
HARRISBURG PA  MOCLDY    52  50  93 CALM      29.95R
BALTIMORE      CLOUDY    59  55  87 NE3       29.93S
ANNAPOLIS      CLEAR     55  52  89 CALM      29.93S
ANDREWS AFB    PTCLDY    62  55  76 E5        29.92S
PHILADELPHIA   PTCLDY    54  51  90 CALM      29.97R
HENDERSON NC   PTCLDY    65  55  69 S6        29.97S
GREENSBORO     MOCLDY    67  58  72 S6        29.95F
ROCKY MOUNT    CLEAR     68  57  68 S5        29.97F
$$

VAZ100-280200-
MARINE

STATION/POSITION TIME  TEMP    WIND        PRES    WAVE   SWELL
                       AIR SEA DIR/SP/G            HT/PER HT/PER
                 (UTC) (F)     (DEG/KT/KT) (MB)    (FT/S) (FT/S)
CAPE MAY NJ      0042   58 47  160/ 10/ 14 1014.1F
LEWES DE         0048   63 45  180/  6/  9 1014.4S
OCEAN-CITY-INLET 0048   49 46  210/  9/ 10 1015.9S
WACHAPREAGUE VA  0048   56 55  220/  6/  8 1014.9F
THOMAS POINT MD  0000   58 46  350/  3/  3   N/A
GOOSES REEF MD   0050   53     200/ 10/ 12 1014.4R
COVE POINT MD    0048   55     190/ 10/ 12 1014.4R
SOLOMONS ISLAND  0042   57 47   40/  2/  3   N/A
BISHOPS HEAD MD  0042   56 56  170/ 12/ 13 1014.4R
PINEY POINT MD   0042          160/  9/ 10   N/A
POTOMAC MD       0050   56     190/  8/  8 1013.3R
CAMBRIDGE MD     0048   63 46  170/  5/  7 1013.6R
LEWISETTA VA     0048   68 54  200/  5/  6 1013.7R
RAPPAHANNOCK LGT 0042          140/ 14/ 15 1015.2R
STINGRAY PT      0050   54     180/ 12/ 12 1014.5S
YORK RVR RNG VA  0048   58     190/ 12/ 12 1014.1S
YORKTOWN VA      0048   68 52  150/  4/  5 1014.4R
JAMESTOWN VA     0050   67     120/  4/  6   N/A
DOMINION TERM VA 0048   66     170/  7/  8 1014.9S
KIPTOPEKE VA     0042      51  170/ 13/ 13   N/A
CHES BAY BRIDGE  0048   66 49  190/ 11/ 13 1015.2R
CAPE HENRY VA    0048   68     180/  7/ 12   N/A
WILLOUBY STN VA  0042   71     180/  8/  8 1015.9S
S CRANEY ISL VA  0048   66     180/  6/  6 1014.9R
CAPE HENRY BUOY  0042      51                N/A     3/10   2/11
CAPE CHARLES BUO 0051      49                N/A     3/ 9   2/11
OFFSHORE WE BUOY 0051      50                N/A     4/ 7   2/11
64NM E OF VA BCH 0050   55 49  190/ 10/ 10 1016.6R   4/ 9   3/ 9
DUCK PIER NC     0042   66 49  190/ 13/ 16 1015.9R
44100 DUCK FRF   0035      52                N/A     4/10   2/11
44056 DUCK FRF   0030      54                N/A     3/ 8   2/17
OREGON INLET NC  0048          180/  9/ 11 1017.1R
HATTERAS NC      0048   67 62  210/  6/  9 1017.5R
DIAMOND SHLS NC  0050   71 75  200/ 12/ 14 1017.8R   4/ 9   3/ 9
CAPE LOOKOUT NC  0000   66     160/  8/  8 1017.4F
$$




USA.gov is the U.S. government's official web portal to all federal, state and local government web resources and services.